Simultaneous Nadir Overpasses (SNOs) Predictions

Prediction of SNOs between GOES-16 and NPP Satellite Orbit:

Table of predicted SNOs for the next 14.0 days since TLE Epoch: 9/26/2020
Index Date Time (GOES-16) GOES-16 Lat,Lon NPP Lat,Lon Distance(km) Time Diff (sec)
1 09/27/2020 06:38:50 -0.01, -75.19 0.58, -77.96 315.40 80
2 09/28/2020 06:17:24 -0.01, -75.19 -0.40, -73.42 201.21 80
3 09/29/2020 18:39:20 0.01, -75.20 -0.75, -78.74 401.93 80
4 09/30/2020 18:23:15 0.01, -75.21 0.23, -74.20 115.33 80
5 10/02/2020 06:45:02 -0.01, -75.22 0.95, -79.47 484.67 80
6 10/03/2020 06:23:38 -0.01, -75.23 -0.09, -74.95 32.90 80
7 10/05/2020 18:26:49 0.01, -75.27 -0.07, -75.72 51.48 80
8 10/06/2020 18:10:43 0.01, -75.28 0.91, -71.19 466.44 80
9 10/08/2020 06:32:30 -0.01, -75.30 0.27, -76.46 132.83 80
10 10/09/2020 06:11:06 -0.01, -75.31 -0.77, -71.93 385.04 80
